TimeEDT,TemperatureF,Dew PointF,Humidity,Sea Level PressureIn,VisibilityMPH,Wind Direction,Wind SpeedMPH,Gust SpeedMPH,PrecipitationIn,Events,Conditions,WindDirDegrees,DateUTC
12:53 AM,59.0,54.0,83,30.09,10.0,ESE,6.9,-,N/A,,Clear,120,2013-04-18 04:53:00
1:53 AM,60.1,55.0,83,30.07,10.0,ESE,8.1,-,N/A,,Clear,120,2013-04-18 05:53:00
2:53 AM,60.1,55.0,83,30.03,10.0,SE,10.4,-,N/A,,Clear,140,2013-04-18 06:53:00
3:53 AM,62.1,55.9,80,30.00,10.0,SE,10.4,-,N/A,,Clear,140,2013-04-18 07:53:00
4:53 AM,63.0,55.9,78,29.97,10.0,SE,11.5,-,N/A,,Clear,140,2013-04-18 08:53:00
5:53 AM,63.0,55.9,78,29.99,10.0,SSE,10.4,-,N/A,,Clear,160,2013-04-18 09:53:00
6:53 AM,62.1,55.9,80,30.01,10.0,SSE,6.9,-,N/A,,Clear,150,2013-04-18 10:53:00
7:53 AM,64.0,55.9,75,30.01,10.0,SSE,11.5,-,N/A,,Clear,160,2013-04-18 11:53:00
8:53 AM,68.0,57.0,68,29.99,10.0,South,12.7,-,N/A,,Clear,180,2013-04-18 12:53:00
9:53 AM,73.0,57.0,57,29.99,10.0,SSW,15.0,23.0,N/A,,Mostly Cloudy,200,2013-04-18 13:53:00
10:53 AM,73.0,55.9,55,29.98,10.0,SSW,11.5,-,N/A,,Mostly Cloudy,210,2013-04-18 14:53:00
11:53 AM,75.9,55.9,50,29.95,10.0,SW,21.9,29.9,N/A,,Partly Cloudy,220,2013-04-18 15:53:00
12:53 PM,79.0,57.9,48,29.91,10.0,SSW,20.7,27.6,N/A,,Partly Cloudy,200,2013-04-18 16:53:00
1:53 PM,81.0,57.0,44,29.87,10.0,SSW,17.3,25.3,N/A,,Clear,200,2013-04-18 17:53:00
2:53 PM,82.9,55.9,39,29.85,10.0,SSW,11.5,27.6,N/A,,Scattered Clouds,200,2013-04-18 18:53:00
3:53 PM,82.0,53.1,37,29.83,10.0,SSW,11.5,20.7,N/A,,Overcast,200,2013-04-18 19:53:00
4:53 PM,82.9,54.0,37,29.80,10.0,SSW,11.5,23.0,N/A,,Mostly Cloudy,210,2013-04-18 20:53:00
5:53 PM,82.0,52.0,35,29.79,10.0,SSW,13.8,28.8,N/A,,Mostly Cloudy,200,2013-04-18 21:53:00
6:53 PM,81.0,54.0,39,29.77,10.0,South,12.7,27.6,N/A,,Scattered Clouds,170,2013-04-18 22:53:00
7:53 PM,79.0,53.1,40,29.77,10.0,South,25.3,32.2,N/A,,Partly Cloudy,170,2013-04-18 23:53:00
8:53 PM,75.9,52.0,43,29.78,10.0,South,18.4,25.3,N/A,,Clear,170,2013-04-19 00:53:00
9:53 PM,73.9,51.1,45,29.78,10.0,South,17.3,25.3,N/A,,Clear,180,2013-04-19 01:53:00
10:53 PM,73.0,48.9,42,29.77,10.0,South,19.6,32.2,N/A,,Clear,180,2013-04-19 02:53:00
11:53 PM,72.0,48.9,44,29.75,10.0,South,21.9,28.8,N/A,,Clear,180,2013-04-19 03:53:00